Orbital Elements at Epoch 2459200.5 (2020-Dec-17.0) TDB
Reference: JPL 19 (heliocentric ecliptic J2000)
Element | Value | Uncertainty (1-sigma) | Units |
e | .06444902294963263 | 3.4676e-08 | |
a | 2.648488230862502 | 1.3993e-08 | au |
q | 2.477795752089813 | 9.1722e-08 | au |
i | 4.000572542225143 | 3.7136e-06 | deg |
node | 118.6435283003801 | 7.7361e-05 | deg |
peri | 348.564458556245 | 9.0385e-05 | deg |
M | 201.2927034576188 | 4.5781e-05 | deg |
tp | 2459894.548613593057 (2022-Nov-11.04861359) | 0.00020047 | TDB |
period | 1574.329009043253 4.31 | 1.2476e-05 3.416e-08 | d yr |
n | .2286688474468105 | 1.8122e-09 | deg/d |
Q | 2.819180709635191 | 1.4894e-08 | au |
|
| | Orbit Determination Parameters
Additional Information
|